| time (UTC) | temp C | wind direction | speed KPH | gust KPH | rain 1hr cm | rain 24hr cm | rain mn cm | humidity % | barometer mb |
| 20260506044544 | 7 | 70 | 0.0 | 0.0 | 0.08 | 3.15 | 0.03 | 96 | 1001.3 |
| 20260506043036 | 7 | 70 | 0.0 | 0.0 | 0.10 | 3.15 | 0.03 | 95 | 1001.3 |
| 20260506041533 | 8 | 340 | 0.0 | 1.6 | 0.13 | 3.12 | 0.00 | 95 | 1001.3 |
| 20260506040030 | 8 | 332 | 0.0 | 0.0 | 0.23 | 3.12 | 0.00 | 96 | 1001.3 |
| 20260506034529 | 8 | 332 | 0.0 | 0.0 | 0.25 | 3.07 | 3.07 | 97 | 1001.3 |
| 20260506033034 | 8 | 332 | 0.0 | 0.0 | 0.30 | 3.05 | 3.05 | 97 | 1001.3 |
| 20260506031533 | 9 | 332 | 0.0 | 1.6 | 0.30 | 2.97 | 2.97 | 97 | 1001.3 |
| 20260506030050 | 9 | 332 | 0.0 | 3.2 | 0.30 | 2.87 | 2.87 | 97 | 1001.3 |
| 20260506024530 | 9 | 340 | 0.0 | 0.0 | 0.30 | 2.82 | 2.82 | 96 | 1001.3 |
| 20260506023026 | 9 | 340 | 0.0 | 1.6 | 0.23 | 2.74 | 2.74 | 96 | 1001.3 |
| 20260506021524 | 9 | 340 | 0.0 | 1.6 | 0.18 | 2.67 | 2.67 | 96 | 1001.3 |
| 20260506020024 | 9 | 340 | 0.0 | 0.0 | 0.15 | 2.59 | 2.59 | 96 | 1001.3 |
| 20260506014523 | 9 | 340 | 0.0 | 0.0 | 0.10 | 2.51 | 2.51 | 96 | 1001.3 |
| 20260506013023 | 9 | 340 | 0.0 | 0.0 | 0.13 | 2.51 | 2.51 | 96 | 1001.3 |
| 20260506011531 | 9 | 341 | 0.0 | 0.0 | 0.10 | 2.49 | 2.49 | 96 | 1001.3 |
| 20260506010022 | 9 | 340 | 0.0 | 0.0 | 0.05 | 2.44 | 2.44 | 96 | 1001.3 |
| 20260506004540 | 9 | 340 | 0.0 | 0.0 | 0.05 | 2.41 | 2.41 | 96 | 1001.3 |
| 20260506003026 | 9 | 340 | 0.0 | 0.0 | 0.08 | 2.39 | 2.39 | 96 | 1001.3 |
| 20260506001522 | 9 | 341 | 0.0 | 0.0 | 0.28 | 2.39 | 2.39 | 96 | 1001.3 |
| 20260506000023 | 9 | 341 | 0.0 | 0.0 | 0.46 | 2.39 | 2.39 | 96 | 1001.3 |
| 20260505234519 | 9 | 343 | 0.0 | 3.2 | 0.53 | 2.34 | 2.34 | 95 | 1001.3 |
| 20260505233017 | 9 | 256 | 0.0 | 1.6 | 0.69 | 2.31 | 2.31 | 95 | 1001.3 |
| 20260505231522 | 9 | 253 | 0.0 | 1.6 | 0.71 | 2.11 | 2.11 | 95 | 1001.3 |
| 20260505230015 | 9 | 253 | 0.0 | 4.8 | 0.58 | 1.93 | 1.93 | 95 | 1001.3 |
| 20260505224515 | 9 | 242 | 0.0 | 1.6 | 0.56 | 1.78 | 1.78 | 95 | 1001.3 |
| 20260505223013 | 9 | 275 | 0.0 | 0.0 | 0.53 | 1.63 | 1.63 | 94 | 1001.3 |
| 20260505221512 | 9 | 275 | 0.0 | 0.0 | 0.41 | 1.40 | 1.40 | 94 | 1001.3 |
| 20260505220011 | 9 | 275 | 0.0 | 1.6 | 0.38 | 1.32 | 1.32 | 94 | 1001.3 |
| 20260505214512 | 9 | 275 | 0.0 | 3.2 | 0.30 | 1.22 | 1.22 | 94 | 1001.3 |
| 20260505213008 | 9 | 287 | 1.6 | 6.4 | 0.25 | 1.09 | 1.09 | 93 | 1001.3 |
| 20260505211509 | 10 | 296 | 3.2 | 9.7 | 0.30 | 0.99 | 0.99 | 93 | 1001.3 |
| 20260505210005 | 10 | 304 | 4.8 | 8.0 | 0.41 | 0.94 | 0.94 | 94 | 1001.3 |
| 20260505204504 | 10 | 304 | 4.8 | 8.0 | 0.58 | 0.89 | 0.89 | 94 | 1001.3 |
| 20260505203004 | 10 | 292 | 3.2 | 4.8 | 0.69 | 0.84 | 0.84 | 93 | 1001.3 |
| 20260505201558 | 11 | 87 | 0.0 | 1.6 | 0.66 | 0.69 | 0.69 | 93 | 1001.3 |
| 20260505200056 | 11 | 218 | 0.0 | 4.8 | 0.53 | 0.53 | 0.53 | 93 | 1001.3 |
| 20260505194559 | 11 | 228 | 0.0 | 6.4 | 0.30 | 0.30 | 0.30 | 92 | 1001.3 |
| 20260505193110 | 12 | 154 | 0.0 | 4.8 | 0.15 | 0.15 | 0.15 | 91 | 1001.3 |
| 20260505191558 | 12 | 236 | 0.0 | 8.0 | 0.03 | 0.03 | 0.03 | 90 | 1001.3 |
| 20260505190049 | 12 | 274 | 1.6 | 6.4 | 0.00 | 0.00 | 0.00 | 90 | 1001.3 |
| 20260505184554 | 12 | 284 | 1.6 | 4.8 | 0.00 | 0.00 | 0.00 | 90 | 1001.3 |
| 20260505183049 | 12 | 290 | 0.0 | 4.8 | 0.00 | 0.00 | 0.00 | 90 | 1001.3 |
| 20260505181548 | 12 | 200 | 0.0 | 6.4 | 0.00 | 0.00 | 0.00 | 90 | 1001.3 |
| 20260505180047 | 12 | 184 | 0.0 | 4.8 | 0.00 | 0.00 | 0.00 | 90 | 1001.3 |
| 20260505174547 | 12 | 291 | 3.2 | 6.4 | 0.00 | 0.00 | 0.00 | 90 | 1001.3 |
| 20260505173046 | 12 | 295 | 4.8 | 6.4 | 0.00 | 0.00 | 0.00 | 90 | 1001.3 |
| 20260505171548 | 12 | 298 | 3.2 | 8.0 | 0.00 | 0.00 | 0.00 | 89 | 1001.3 |
| 20260505170042 | 12 | 289 | 9.7 | 12.9 | 0.00 | 0.00 | 0.00 | 88 | 1001.3 |
| 20260505164544 | 13 | 291 | 11.3 | 14.5 | 0.00 | 0.00 | 0.00 | 87 | 1001.3 |
| 20260505163040 | 13 | 294 | 9.7 | 12.9 | 0.00 | 0.00 | 0.00 | 85 | 1001.3 |
| 20260505161532 | 14 | 296 | 9.7 | 14.5 | 0.00 | 0.00 | 0.00 | 82 | 1001.3 |
| 20260505153025 | 17 | 282 | 3.2 | 11.3 | 0.00 | 0.00 | 0.00 | 74 | 1001.3 |
| 20260505151527 | 17 | 247 | 3.2 | 19.3 | 0.00 | 0.00 | 0.00 | 74 | 1001.3 |
| 20260505124512 | 18 | 236 | 4.8 | 24.1 | 0.00 | 0.00 | 0.00 | 68 | 1001.3 |
| 20260505123011 | 18 | 150 | 3.2 | 22.5 | 0.00 | 0.00 | 0.00 | 68 | 1001.3 |
| 20260505121510 | 18 | 121 | 6.4 | 16.1 | 0.00 | 0.00 | 0.00 | 66 | 1001.3 |
| 20260505120014 | 18 | 128 | 4.8 | 16.1 | 0.00 | 0.00 | 0.00 | 65 | 1001.3 |
| 20260505114509 | 18 | 224 | 3.2 | 16.1 | 0.00 | 0.00 | 0.00 | 65 | 1001.3 |
| 20260505113012 | 18 | 195 | 6.4 | 22.5 | 0.00 | 0.00 | 0.00 | 64 | 1001.3 |
| 20260505111519 | 18 | 252 | 6.4 | 22.5 | 0.00 | 0.00 | 0.00 | 64 | 1001.3 |
| 20260505101503 | 18 | 193 | 8.0 | 20.9 | 0.00 | 0.00 | 0.00 | 66 | 1001.3 |
| 20260505100003 | 19 | 182 | 8.0 | 17.7 | 0.00 | 0.00 | 0.00 | 65 | 1001.3 |
| 20260505094502 | 19 | 231 | 4.8 | 17.7 | 0.00 | 0.00 | 0.00 | 64 | 1001.3 |
| 20260505093003 | 19 | 243 | 8.0 | 20.9 | 0.00 | 0.00 | 0.00 | 64 | 1001.3 |
| 20260505091501 | 20 | 237 | 4.8 | 22.5 | 0.00 | 0.00 | 0.00 | 64 | 1001.3 |
| 20260505090123 | 18 | 179 | 4.8 | 24.1 | 0.00 | 0.00 | 0.00 | 67 | 1001.3 |
| 20260505084615 | 17 | 211 | 3.2 | 14.5 | 0.00 | 0.00 | 0.00 | 72 | 1001.3 |
| 20260505083111 | 17 | 192 | 4.8 | 12.9 | 0.00 | 0.00 | 0.00 | 72 | 1001.3 |
| 20260505081602 | 18 | 222 | 3.2 | 12.9 | 0.00 | 0.00 | 0.00 | 68 | 1001.3 |
| 20260505080100 | 20 | 224 | 6.4 | 19.3 | 0.00 | 0.00 | 0.00 | 62 | 1001.3 |
| 20260505074551 | 20 | 144 | 8.0 | 25.7 | 0.00 | 0.00 | 0.00 | 61 | 1001.3 |
| 20260505073055 | 21 | 271 | 9.7 | 30.6 | 0.00 | 0.00 | 0.00 | 60 | 1001.3 |
| 20260505071605 | 20 | 145 | 12.9 | 30.6 | 0.00 | 0.00 | 0.00 | 60 | 1001.3 |
| 20260505070150 | 20 | 266 | 6.4 | 22.5 | 0.00 | 0.00 | 0.00 | 61 | 1001.3 |
| 20260505064547 | 21 | 96 | 8.0 | 29.0 | 0.00 | 0.00 | 0.00 | 61 | 1001.3 |
| 20260505063051 | 21 | 155 | 11.3 | 29.0 | 0.00 | 0.00 | 0.00 | 60 | 1001.3 |
| 20260505061546 | 21 | 238 | 8.0 | 24.1 | 0.00 | 0.00 | 0.00 | 61 | 1001.3 |
| 20260505060056 | 20 | 91 | 4.8 | 24.1 | 0.00 | 0.00 | 0.00 | 63 | 1001.3 |